Weather History for PHOG - October, 2011

Change the Weather History Date:

Saturday, October 1, 2011

  Actual Average Record
Temperature  
Mean Temperature 79 °F 79 °F  
Max Temperature 88 °F 88 °F 92 °F (1986)
Min Temperature 69 °F 70 °F 60 °F (1949)
Degree Days  
Heating Degree Days 0 0  
Month to date heating degree days 0 0  
Since 1 July heating degree days 0 0  
Cooling Degree Days 14 14  
Month to date cooling degree days 14 14  
Year to date cooling degree days 3014 2982  
Growing Degree Days 28 (Base 50)    
Moisture  
Dew Point 66 °F    
Average Humidity 68    
Maximum Humidity 90    
Minimum Humidity 46    
Precipitation  
Precipitation T in 0.02 in 0.12 in (2001)
Month to date precipitation T 0.02  
Year to date precipitation 10.43 11.10  
Snow  
Snow 0.00 in - - ()
Month to date snowfall 0.0  
Since 1 July snowfall 0.0  
Since 1 September snowfall 0.0  
Snow Depth 0.00 in    
Sea Level Pressure  
Sea Level Pressure 30.00 in    
Wind  
Wind Speed 12 mph (NE)    
Max Wind Speed 25 mph    
Max Gust Speed 31 mph    
Visibility 10 miles    
Events      
T = Trace of Precipitation, MM = Missing Value Source: NWS Daily Summary

Daily Weather History Graph

Daily Weather History Graph

Search for Another Location

Airport or City:

Trip Planner

Search our weather history database for the weather conditions in past years. The results will help you decide how hot, cold, wet, or windy it might be!

Date:

Astronomy

Oct. 01, 2011 Rise Set
Actual Time 6:16 AM HST 6:13 PM HST
Civil Twilight 5:54 AM HST 6:35 PM HST
Nautical Twilight 5:28 AM HST 7:01 PM HST
Astronomical Twilight 5:03 AM HST 7:27 PM HST
Moon 10:52 AM HST (10/1) 10:04 PM HST (10/1)
Length of Visible Light 12h 41m
Length of Day
11h 56m
Waxing Crescent, 26% of the Moon is Illuminated
Oct 1
Waxing Crescent
Oct 3
First Quarter
Oct 11
Full
Oct 19
Last Quarter
Oct 26
New

Hourly Weather History & Observations

Time (HST) Temp. Heat Index Dew Point Humidity Pressure Visibility Wind Dir Wind Speed Gust Speed Precip Events Conditions
12:54 AM 73.0 °F - 66.9 °F 81% 30.03 in 10.0 mi North 12.7 mph - 0.00 in   Mostly Cloudy
1:54 AM 73.0 °F - 68.0 °F 84% 30.01 in 10.0 mi North 10.4 mph - N/A   Mostly Cloudy
2:03 AM 73.4 °F - 69.8 °F 88% 29.99 in 10.0 mi NNE 12.7 mph - N/A   Mostly Cloudy
2:54 AM 73.9 °F - 68.0 °F 82% 30.00 in 10.0 mi NE 9.2 mph - N/A   Mostly Cloudy
3:54 AM 73.0 °F - 66.9 °F 81% 29.99 in 10.0 mi ENE 11.5 mph - N/A   Scattered Clouds
4:54 AM 72.0 °F - 66.9 °F 84% 29.99 in 10.0 mi WSW 3.5 mph - N/A   Partly Cloudy
5:54 AM 70.0 °F - 66.0 °F 87% 30.01 in 10.0 mi ENE 4.6 mph - N/A   Clear
6:54 AM 69.1 °F - 66.0 °F 90% 30.02 in 10.0 mi Calm Calm - N/A   Smoke
7:54 AM 75.9 °F - 64.9 °F 69% 30.03 in 10.0 mi East 6.9 mph - N/A   Partly Cloudy
8:54 AM 82.0 °F 83.8 °F 64.9 °F 56% 30.03 in 10.0 mi NE 16.1 mph 20.7 mph N/A   Smoke
9:54 AM 82.9 °F 85.0 °F 66.0 °F 56% 30.03 in 10.0 mi ENE 13.8 mph - N/A   Smoke
10:54 AM 86.0 °F 88.2 °F 66.0 °F 51% 30.02 in 10.0 mi NE 23.0 mph 26.5 mph N/A   Partly Cloudy
11:54 AM 86.0 °F 88.2 °F 66.0 °F 51% 30.00 in 10.0 mi NE 20.7 mph 27.6 mph N/A   Scattered Clouds
12:54 PM 84.9 °F 87.1 °F 66.0 °F 53% 29.97 in 10.0 mi NE 19.6 mph 25.3 mph N/A   Scattered Clouds
1:54 PM 87.1 °F 88.9 °F 64.9 °F 48% 29.94 in 10.0 mi NE 21.9 mph - N/A   Partly Cloudy
2:54 PM 86.0 °F 87.6 °F 64.9 °F 49% 29.93 in 10.0 mi NE 18.4 mph 26.5 mph N/A   Partly Cloudy
3:54 PM 86.0 °F 87.3 °F 64.0 °F 48% 29.93 in 10.0 mi NE 20.7 mph 27.6 mph N/A   Partly Cloudy
4:54 PM 82.0 °F 83.4 °F 64.0 °F 54% 29.94 in 10.0 mi ENE 18.4 mph 24.2 mph N/A   Scattered Clouds
5:54 PM 80.1 °F 81.9 °F 64.9 °F 60% 29.96 in 10.0 mi ENE 16.1 mph 24.2 mph N/A   Scattered Clouds
6:54 PM 77.0 °F - 64.9 °F 66% 29.99 in 10.0 mi East 12.7 mph - N/A   Scattered Clouds
7:54 PM 75.0 °F - 64.0 °F 69% 30.01 in 10.0 mi NE 9.2 mph - N/A   Partly Cloudy
8:54 PM 73.9 °F - 62.1 °F 66% 30.04 in 10.0 mi East 5.8 mph - N/A   Clear
9:54 PM 73.9 °F - 64.0 °F 71% 30.05 in 10.0 mi ENE 6.9 mph - N/A   Clear
10:54 PM 73.9 °F - 64.0 °F 71% 30.04 in 10.0 mi ENE 6.9 mph - N/A   Clear
11:54 PM 73.0 °F - 64.0 °F 73% 30.04 in 10.0 mi NE 9.2 mph - N/A   Clear